STARLINK-4111 (53159 NORAD) Tracking and Keplerian Element Data

This shows tracking and keplerian element data for the satellite.

Feedback or suggestion? Click here.




ElementValue
Catalog53159
NameSTARLINK-4111
Epoch Orbit1185
Epoch Day270.25001157
Epoch Year2022
RAAN58.1051
Inclination53.2174
Eccentricity0.0001697
Argument of Perigee39.4615
Mean Anonmoly40.0821
Mean Motion15.19130748
Decay Rate-0.0106049
L11 53159U 22083AD 22270.25001157 -.01060490 00000+0 -54477-1 0 9991
L22 53159 53.2174 58.1051 0001697 39.4615 40.0821 15.19130748 11857

Live tracking and technical data element details for STARLINK-4111 (NORAD 53159). STARLINK-4111 can be tracked NOW for your location showing map with azimuth and elevation plus other details from your city location.

Track the satellite on the map from your city or location and see movement details for azimuth, elevation, latitude, longitude, range, height, and movement on the map or in text.







IsCatalogInMostPopularTable: catalog: 53159, numindb: 7
Update: records affected: 1



GetName: 53159 STARLINK-4111

Hit Count: updated at: Fri, 30 Sep 2022 02:43:05 GMT